ES'HAIL 2

Last updated on Nov. 29, 2020, 6:16 a.m. UTC

1 43700U 18090A   20333.36646450  .00000162  00000-0  00000+0 0  9995
2 43700   0.0148   3.4215 0002033 268.4594 313.5883  1.00274136  7596
UTC
Height (km)
Latitude
Longitude
Inclination
Orbital Period
UTC large
Height (km)
Speed (km/s)
/
Latitude / Longitude
Inclination (degrees)
Orbital Period (minutes)
Azimuth
Elevation
Range (km)
Doppler Factor
iOS Compass Heading
iOS Angle

Next 30 passes for location: Hong Kong

Rise time Rise Azimuth (degrees) Set time Set Azimuth (degrees) Duration Max altitude (degrees)

No matching passes for this satellites